Location: Bruderhein
(53.8035°N, 112.9265°W)
Time: 10:44:50
(UTC+00:00)

DIWATA 2B (PO-101) - Pass Details

Date: 03 April 2023
Orbit: 581 x 593 km, 98.0° (Epoch: 29 May)

Event Time Altitude Azimuth Distance (km) Brightness Sun altitude
Exits shadow 08:28:59 20° 70° (ENE) 1,367 ? -29.9°
Maximum altitude 08:29:32 21° 59° (ENE) 1,346 ? -29.8°
Drops below altitude 10° 08:32:38 10° 10° (N) 1,915 ? -29.7°
Sets 08:35:12 0° 355° (N) 2,822 ? -29.6°
